Time,TemperatureF,DewpointF,PressureIn,WindDirection,WindDirectionDegrees,WindSpeedMPH,WindSpeedGustMPH,Humidity,HourlyPrecipIn,Conditions,Clouds,dailyrainin,SoftwareType,DateUTC
2013-09-06 00:00:00,67.0,67.0,30.20,ENE,67,0.0,0.0,100,0.00,,,0.00,Weather View 32 v70,2013-09-06 04:00:00,
2013-09-06 00:05:00,67.0,67.0,30.20,ENE,67,0.0,0.0,100,0.00,,,0.00,Weather View 32 v70,2013-09-06 04:05:00,
2013-09-06 00:10:00,67.0,67.0,30.20,ENE,67,0.0,0.0,100,0.00,,,0.00,Weather View 32 v70,2013-09-06 04:10:00,
2013-09-06 00:15:00,67.0,67.0,30.20,ENE,67,0.0,0.0,100,0.00,,,0.00,Weather View 32 v70,2013-09-06 04:15:00,
2013-09-06 00:20:00,67.0,67.0,30.20,ENE,67,0.0,0.0,100,0.00,,,0.00,Weather View 32 v70,2013-09-06 04:20:00,
2013-09-06 00:25:00,67.0,67.0,30.20,ENE,67,0.0,0.0,100,0.00,,,0.00,Weather View 32 v70,2013-09-06 04:25:00,
2013-09-06 00:30:00,67.0,67.0,30.20,ENE,67,0.0,0.0,100,0.00,,,0.00,Weather View 32 v70,2013-09-06 04:30:00,
2013-09-06 00:35:00,67.0,67.0,30.20,ENE,67,0.0,0.0,100,0.00,,,0.00,Weather View 32 v70,2013-09-06 04:35:00,
2013-09-06 00:40:00,67.0,67.0,30.20,ENE,67,0.0,0.0,100,0.00,,,0.00,Weather View 32 v70,2013-09-06 04:40:00,
2013-09-06 00:45:00,66.0,66.0,30.20,ENE,67,0.0,0.0,100,0.00,,,0.00,Weather View 32 v70,2013-09-06 04:45:00,
2013-09-06 00:55:00,66.0,66.0,30.20,ENE,67,0.0,0.0,100,0.00,,,0.00,Weather View 32 v70,2013-09-06 04:55:00,
2013-09-06 01:01:00,66.0,66.0,30.20,ENE,67,0.0,0.0,100,0.00,,,0.00,Weather View 32 v70,2013-09-06 05:01:00,
2013-09-06 01:10:00,66.0,66.0,30.20,ENE,67,0.0,0.0,100,0.00,,,0.00,Weather View 32 v70,2013-09-06 05:10:00,
2013-09-06 01:15:00,66.0,65.7,30.20,ENE,67,0.0,0.0,99,0.00,,,0.00,Weather View 32 v70,2013-09-06 05:15:00,
2013-09-06 01:20:00,66.0,65.7,30.20,ENE,67,0.0,0.0,99,0.00,,,0.00,Weather View 32 v70,2013-09-06 05:20:00,
2013-09-06 01:30:00,66.0,65.4,30.20,ENE,67,0.0,1.0,98,0.00,,,0.00,Weather View 32 v70,2013-09-06 05:30:00,
2013-09-06 01:35:00,66.0,65.4,30.20,ENE,67,0.0,1.0,98,0.00,,,0.00,Weather View 32 v70,2013-09-06 05:35:00,
2013-09-06 01:40:00,66.0,65.4,30.20,ENE,67,0.0,1.0,98,0.00,,,0.00,Weather View 32 v70,2013-09-06 05:40:00,
2013-09-06 01:45:00,66.0,65.4,30.20,ENE,67,0.0,1.0,98,0.00,,,0.00,Weather View 32 v70,2013-09-06 05:45:00,
2013-09-06 01:55:00,66.0,65.4,30.20,ENE,67,0.0,2.0,98,0.00,,,0.00,Weather View 32 v70,2013-09-06 05:55:00,
2013-09-06 02:00:00,66.0,65.4,30.20,ENE,67,2.0,2.0,98,0.00,,,0.00,Weather View 32 v70,2013-09-06 06:00:00,
2013-09-06 02:10:00,67.0,67.0,30.20,ENE,67,1.0,4.0,100,0.00,,,0.00,Weather View 32 v70,2013-09-06 06:10:00,
2013-09-06 02:20:00,67.0,67.0,30.20,ENE,67,0.0,4.0,100,0.00,,,0.00,Weather View 32 v70,2013-09-06 06:20:00,
2013-09-06 02:25:00,67.0,67.0,30.20,ENE,67,1.0,4.0,100,0.00,,,0.00,Weather View 32 v70,2013-09-06 06:25:00,
2013-09-06 02:30:00,67.0,67.0,30.20,ENE,67,0.0,4.0,100,0.00,,,0.00,Weather View 32 v70,2013-09-06 06:30:00,
2013-09-06 02:35:00,67.0,66.7,30.20,ENE,67,0.0,4.0,99,0.00,,,0.00,Weather View 32 v70,2013-09-06 06:35:00,
2013-09-06 02:40:00,67.0,67.0,30.20,ENE,67,0.0,4.0,100,0.00,,,0.00,Weather View 32 v70,2013-09-06 06:40:00,
2013-09-06 02:45:00,67.0,67.0,30.20,ENE,67,0.0,4.0,100,0.00,,,0.00,Weather View 32 v70,2013-09-06 06:45:00,
2013-09-06 02:55:00,67.0,67.0,30.20,ENE,67,0.0,4.0,100,0.00,,,0.00,Weather View 32 v70,2013-09-06 06:55:00,
2013-09-06 03:00:00,67.0,67.0,30.20,ENE,67,0.0,4.0,100,0.00,,,0.00,Weather View 32 v70,2013-09-06 07:00:00,
2013-09-06 03:05:00,66.0,66.0,30.20,ENE,67,0.0,3.0,100,0.00,,,0.00,Weather View 32 v70,2013-09-06 07:05:00,
2013-09-06 03:15:00,66.0,66.0,30.20,ENE,67,0.0,2.0,100,0.00,,,0.00,Weather View 32 v70,2013-09-06 07:15:00,
2013-09-06 03:20:00,66.0,66.0,30.20,ENE,67,0.0,2.0,100,0.00,,,0.00,Weather View 32 v70,2013-09-06 07:20:00,
2013-09-06 03:25:00,67.0,67.0,30.20,ENE,67,0.0,2.0,100,0.00,,,0.00,Weather View 32 v70,2013-09-06 07:25:00,
2013-09-06 03:30:00,67.0,66.7,30.20,ENE,67,0.0,4.0,99,0.00,,,0.00,Weather View 32 v70,2013-09-06 07:30:00,
2013-09-06 03:40:00,67.0,66.4,30.20,ENE,67,3.0,4.0,98,0.00,,,0.00,Weather View 32 v70,2013-09-06 07:40:00,
2013-09-06 03:45:00,67.0,66.4,30.20,ENE,67,0.0,4.0,98,0.00,,,0.00,Weather View 32 v70,2013-09-06 07:45:00,
2013-09-06 03:50:00,67.0,66.1,30.20,ENE,67,2.0,4.0,97,0.00,,,0.00,Weather View 32 v70,2013-09-06 07:50:00,
2013-09-06 03:55:00,67.0,65.8,30.20,ENE,67,0.0,4.0,96,0.00,,,0.00,Weather View 32 v70,2013-09-06 07:55:00,
2013-09-06 04:00:00,67.0,65.8,30.20,ENE,67,1.0,5.0,96,0.00,,,0.00,Weather View 32 v70,2013-09-06 08:00:00,
2013-09-06 04:10:00,67.0,65.5,30.20,NE,45,0.0,5.0,95,0.00,,,0.00,Weather View 32 v70,2013-09-06 08:10:00,
2013-09-06 04:15:00,67.0,65.5,30.20,East,90,4.0,5.0,95,0.00,,,0.00,Weather View 32 v70,2013-09-06 08:15:00,
2013-09-06 04:20:00,67.0,65.2,30.20,East,90,0.0,5.0,94,0.00,,,0.00,Weather View 32 v70,2013-09-06 08:20:00,
2013-09-06 04:25:00,67.0,65.2,30.20,ENE,67,0.0,5.0,94,0.00,,,0.00,Weather View 32 v70,2013-09-06 08:25:00,
2013-09-06 04:30:00,67.0,65.2,30.20,ENE,67,0.0,5.0,94,0.00,,,0.00,Weather View 32 v70,2013-09-06 08:30:00,
2013-09-06 04:40:00,67.0,65.5,30.20,East,90,0.0,5.0,95,0.00,,,0.00,Weather View 32 v70,2013-09-06 08:40:00,
2013-09-06 04:45:00,67.0,65.5,30.20,East,90,0.0,5.0,95,0.00,,,0.00,Weather View 32 v70,2013-09-06 08:45:00,
2013-09-06 04:50:00,66.0,64.5,30.20,East,90,0.0,5.0,95,0.00,,,0.00,Weather View 32 v70,2013-09-06 08:50:00,
2013-09-06 04:55:00,66.0,64.5,30.20,NE,45,1.0,5.0,95,0.00,,,0.00,Weather View 32 v70,2013-09-06 08:55:00,
2013-09-06 05:00:00,66.0,64.2,30.20,NE,45,1.0,5.0,94,0.00,,,0.00,Weather View 32 v70,2013-09-06 09:00:00,
2013-09-06 05:05:00,66.0,64.2,30.20,NE,45,0.0,5.0,94,0.00,,,0.00,Weather View 32 v70,2013-09-06 09:05:00,
2013-09-06 05:15:00,66.0,64.2,30.20,ENE,67,3.0,5.0,94,0.00,,,0.00,Weather View 32 v70,2013-09-06 09:15:00,
2013-09-06 05:20:00,66.0,63.9,30.20,ENE,67,0.0,5.0,93,0.00,,,0.00,Weather View 32 v70,2013-09-06 09:20:00,
2013-09-06 05:25:00,66.0,63.9,30.20,NE,45,1.0,5.0,93,0.00,,,0.00,Weather View 32 v70,2013-09-06 09:25:00,
2013-09-06 05:35:00,66.0,63.9,30.20,ESE,112,1.0,6.0,93,0.00,,,0.00,Weather View 32 v70,2013-09-06 09:35:00,
2013-09-06 05:40:00,66.0,63.9,30.19,ENE,67,2.0,6.0,93,0.00,,,0.00,Weather View 32 v70,2013-09-06 09:40:00,
2013-09-06 05:50:00,65.0,63.2,30.20,ENE,67,0.0,6.0,94,0.00,,,0.00,Weather View 32 v70,2013-09-06 09:50:00,
2013-09-06 05:55:00,65.0,63.5,30.20,ENE,67,0.0,6.0,95,0.00,,,0.00,Weather View 32 v70,2013-09-06 09:55:00,
2013-09-06 06:00:00,65.0,63.5,30.19,ENE,67,1.0,6.0,95,0.00,,,0.00,Weather View 32 v70,2013-09-06 10:00:00,
2013-09-06 06:05:00,65.0,63.8,30.19,ENE,67,0.0,6.0,96,0.00,,,0.00,Weather View 32 v70,2013-09-06 10:05:00,
2013-09-06 06:15:00,65.0,63.8,30.19,ENE,67,0.0,6.0,96,0.00,,,0.00,Weather View 32 v70,2013-09-06 10:15:00,
2013-09-06 06:20:00,64.0,62.8,30.19,ENE,67,1.0,6.0,96,0.00,,,0.00,Weather View 32 v70,2013-09-06 10:20:00,
2013-09-06 06:25:00,64.0,62.8,30.20,NE,45,1.0,6.0,96,0.00,,,0.00,Weather View 32 v70,2013-09-06 10:25:00,
2013-09-06 06:30:00,64.0,62.8,30.20,NE,45,1.0,5.0,96,0.00,,,0.00,Weather View 32 v70,2013-09-06 10:30:00,
2013-09-06 06:40:00,64.0,62.5,30.20,NE,45,1.0,5.0,95,0.00,,,0.00,Weather View 32 v70,2013-09-06 10:40:00,
2013-09-06 06:50:00,63.0,61.8,30.20,NE,45,0.0,5.0,96,0.00,,,0.00,Weather View 32 v70,2013-09-06 10:50:00,
2013-09-06 06:55:00,63.0,61.8,30.20,NE,45,1.0,5.0,96,0.00,,,0.00,Weather View 32 v70,2013-09-06 10:55:00,
2013-09-06 07:00:00,63.0,61.8,30.20,NE,45,0.0,5.0,96,0.00,,,0.00,Weather View 32 v70,2013-09-06 11:00:00,
2013-09-06 07:05:00,63.0,62.1,30.20,NE,45,1.0,5.0,97,0.00,,,0.00,Weather View 32 v70,2013-09-06 11:05:00,
2013-09-06 07:15:00,63.0,61.8,30.20,NE,45,0.0,4.0,96,0.00,,,0.00,Weather View 32 v70,2013-09-06 11:15:00,
2013-09-06 07:20:00,63.0,62.1,30.21,NE,45,1.0,4.0,97,0.00,,,0.00,Weather View 32 v70,2013-09-06 11:20:00,
2013-09-06 07:30:00,63.0,62.1,30.20,East,90,0.0,4.0,97,0.00,,,0.00,Weather View 32 v70,2013-09-06 11:30:00,
2013-09-06 07:35:00,63.0,61.8,30.21,ENE,67,1.0,4.0,96,0.00,,,0.00,Weather View 32 v70,2013-09-06 11:35:00,
2013-09-06 07:40:00,63.0,61.5,30.21,ENE,67,0.0,4.0,95,0.00,,,0.00,Weather View 32 v70,2013-09-06 11:40:00,
2013-09-06 07:45:00,63.0,61.5,30.21,ENE,67,2.0,4.0,95,0.00,,,0.00,Weather View 32 v70,2013-09-06 11:45:00,
2013-09-06 07:50:00,63.0,61.2,30.21,ENE,67,1.0,4.0,94,0.00,,,0.00,Weather View 32 v70,2013-09-06 11:50:00,
2013-09-06 07:55:00,63.0,60.9,30.21,NE,45,2.0,6.0,93,0.00,,,0.00,Weather View 32 v70,2013-09-06 11:55:00,
2013-09-06 08:00:00,64.0,61.6,30.21,ESE,112,2.0,6.0,92,0.00,,,0.00,Weather View 32 v70,2013-09-06 12:00:00,
2013-09-06 08:10:00,65.0,62.0,30.22,NE,45,2.0,6.0,90,0.00,,,0.00,Weather View 32 v70,2013-09-06 12:10:00,
2013-09-06 08:20:00,65.0,60.7,30.22,East,90,3.0,7.0,86,0.00,,,0.00,Weather View 32 v70,2013-09-06 12:20:00,
2013-09-06 08:25:00,66.0,61.3,30.22,NE,45,5.0,7.0,85,0.00,,,0.00,Weather View 32 v70,2013-09-06 12:25:00,
2013-09-06 08:30:00,66.0,61.0,30.22,ESE,112,6.0,7.0,84,0.00,,,0.00,Weather View 32 v70,2013-09-06 12:30:00,
2013-09-06 08:35:00,66.0,60.0,30.22,East,90,5.0,7.0,81,0.00,,,0.00,Weather View 32 v70,2013-09-06 12:35:00,
2013-09-06 08:45:00,67.0,61.0,30.23,SE,135,3.0,8.0,81,0.00,,,0.00,Weather View 32 v70,2013-09-06 12:45:00,
2013-09-06 08:50:00,67.0,61.0,30.23,East,90,5.0,8.0,81,0.00,,,0.00,Weather View 32 v70,2013-09-06 12:50:00,
2013-09-06 08:55:00,67.0,60.2,30.23,East,90,2.0,8.0,79,0.00,,,0.00,Weather View 32 v70,2013-09-06 12:55:00,
2013-09-06 09:00:00,67.0,59.9,30.24,ESE,112,3.0,8.0,78,0.00,,,0.00,Weather View 32 v70,2013-09-06 13:00:00,
2013-09-06 09:05:00,68.0,60.1,30.23,ENE,67,4.0,8.0,76,0.00,,,0.00,Weather View 32 v70,2013-09-06 13:05:00,
2013-09-06 09:15:00,69.0,60.3,30.24,East,90,3.0,8.0,74,0.00,,,0.00,Weather View 32 v70,2013-09-06 13:15:00,
2013-09-06 09:20:00,69.0,60.0,30.24,ENE,67,4.0,9.0,73,0.00,,,0.00,Weather View 32 v70,2013-09-06 13:20:00,
2013-09-06 09:25:00,69.0,60.0,30.24,SE,135,2.0,9.0,73,0.00,,,0.00,Weather View 32 v70,2013-09-06 13:25:00,
2013-09-06 09:30:00,70.0,60.9,30.24,East,90,4.0,9.0,73,0.00,,,0.00,Weather View 32 v70,2013-09-06 13:30:00,
2013-09-06 09:35:00,70.0,59.3,30.24,ESE,112,2.0,9.0,69,0.00,,,0.00,Weather View 32 v70,2013-09-06 13:35:00,
2013-09-06 09:40:00,70.0,59.7,30.24,East,90,5.0,9.0,70,0.00,,,0.00,Weather View 32 v70,2013-09-06 13:40:00,
2013-09-06 09:50:00,71.0,60.7,30.24,East,90,3.0,9.0,70,0.00,,,0.00,Weather View 32 v70,2013-09-06 13:50:00,
2013-09-06 09:55:00,72.0,60.0,30.25,East,90,2.0,9.0,66,0.00,,,0.00,Weather View 32 v70,2013-09-06 13:55:00,
2013-09-06 10:00:00,72.0,60.8,30.25,NE,45,2.0,9.0,68,0.00,,,0.00,Weather View 32 v70,2013-09-06 14:00:00,
2013-09-06 10:05:00,73.0,60.1,30.26,ESE,112,4.0,9.0,64,0.00,,,0.00,Weather View 32 v70,2013-09-06 14:05:00,
2013-09-06 10:15:00,73.0,59.6,30.26,ENE,67,5.0,9.0,63,0.00,,,0.00,Weather View 32 v70,2013-09-06 14:15:00,
2013-09-06 10:20:00,74.0,60.6,30.26,ENE,67,4.0,9.0,63,0.00,,,0.00,Weather View 32 v70,2013-09-06 14:20:00,
2013-09-06 10:25:00,74.0,60.6,30.26,East,90,3.0,9.0,63,0.00,,,0.00,Weather View 32 v70,2013-09-06 14:25:00,
2013-09-06 10:30:00,74.0,59.7,30.26,SE,135,3.0,9.0,61,0.00,,,0.00,Weather View 32 v70,2013-09-06 14:30:00,
2013-09-06 10:35:00,75.0,60.1,30.27,SSE,157,6.0,8.0,60,0.00,,,0.00,Weather View 32 v70,2013-09-06 14:35:00,
2013-09-06 10:45:00,76.0,61.1,30.27,SE,135,4.0,8.0,60,0.00,,,0.00,Weather View 32 v70,2013-09-06 14:45:00,
2013-09-06 10:50:00,76.0,61.1,30.27,SSE,157,6.0,9.0,60,0.00,,,0.00,Weather View 32 v70,2013-09-06 14:50:00,
2013-09-06 11:00:00,77.0,61.0,30.27,ENE,67,1.0,9.0,58,0.00,,,0.00,Weather View 32 v70,2013-09-06 15:00:00,
2013-09-06 11:05:00,77.0,61.0,30.27,East,90,3.0,9.0,58,0.00,,,0.00,Weather View 32 v70,2013-09-06 15:05:00,
2013-09-06 11:10:00,77.0,61.0,30.27,SE,135,3.0,9.0,58,0.00,,,0.00,Weather View 32 v70,2013-09-06 15:10:00,
2013-09-06 11:15:00,78.0,61.5,30.27,SSE,157,2.0,9.0,57,0.00,,,0.00,Weather View 32 v70,2013-09-06 15:15:00,
2013-09-06 11:25:00,79.0,60.9,30.28,SSE,157,1.0,9.0,54,0.00,,,0.00,Weather View 32 v70,2013-09-06 15:25:00,
2013-09-06 11:30:00,79.0,61.4,30.27,ESE,112,3.0,9.0,55,0.00,,,0.00,Weather View 32 v70,2013-09-06 15:30:00,
2013-09-06 11:40:00,79.0,61.4,30.27,SE,135,3.0,9.0,55,0.00,,,0.00,Weather View 32 v70,2013-09-06 15:40:00,
2013-09-06 11:45:00,79.0,60.3,30.27,ESE,112,1.0,9.0,53,0.00,,,0.00,Weather View 32 v70,2013-09-06 15:45:00,
2013-09-06 11:50:00,80.0,61.8,30.27,East,90,2.0,7.0,54,0.00,,,0.00,Weather View 32 v70,2013-09-06 15:50:00,
2013-09-06 11:55:00,80.0,60.7,30.27,ESE,112,2.0,7.0,52,0.00,,,0.00,Weather View 32 v70,2013-09-06 15:55:00,
2013-09-06 12:00:00,81.0,62.2,30.27,NE,45,4.0,7.0,53,0.00,,,0.00,Weather View 32 v70,2013-09-06 16:00:00,
2013-09-06 12:07:00,81.0,61.7,30.27,SE,135,1.0,7.0,52,0.00,,,0.00,Weather View 32 v70,2013-09-06 16:07:00,
2013-09-06 12:15:00,82.0,62.6,30.27,SE,135,3.0,7.0,52,0.00,,,0.00,Weather View 32 v70,2013-09-06 16:15:00,
2013-09-06 12:20:00,83.0,62.9,30.27,SE,135,4.0,7.0,51,0.00,,,0.00,Weather View 32 v70,2013-09-06 16:20:00,
2013-09-06 12:25:00,83.0,62.9,30.27,East,90,4.0,7.0,51,0.00,,,0.00,Weather View 32 v70,2013-09-06 16:25:00,
2013-09-06 12:35:00,84.0,62.7,30.27,SSW,202,1.0,7.0,49,0.00,,,0.00,Weather View 32 v70,2013-09-06 16:35:00,
2013-09-06 12:45:00,84.0,62.7,30.27,ENE,67,1.0,7.0,49,0.00,,,0.00,Weather View 32 v70,2013-09-06 16:45:00,
2013-09-06 12:50:00,85.0,63.6,30.27,ESE,112,3.0,7.0,49,0.00,,,0.00,Weather View 32 v70,2013-09-06 16:50:00,
2013-09-06 12:55:00,86.0,63.3,30.27,ENE,67,1.0,7.0,47,0.00,,,0.00,Weather View 32 v70,2013-09-06 16:55:00,
2013-09-06 13:00:00,86.0,62.7,30.27,East,90,5.0,6.0,46,0.00,,,0.00,Weather View 32 v70,2013-09-06 17:00:00,
2013-09-06 13:07:00,86.0,63.3,30.26,NE,45,6.0,7.0,47,0.00,,,0.00,Weather View 32 v70,2013-09-06 17:07:00,
2013-09-06 13:15:00,86.0,62.7,30.26,East,90,1.0,8.0,46,0.00,,,0.00,Weather View 32 v70,2013-09-06 17:15:00,
2013-09-06 13:20:00,86.0,63.3,30.26,ENE,67,3.0,8.0,47,0.00,,,0.00,Weather View 32 v70,2013-09-06 17:20:00,
2013-09-06 13:25:00,86.0,63.3,30.26,NE,45,4.0,9.0,47,0.00,,,0.00,Weather View 32 v70,2013-09-06 17:25:00,
2013-09-06 13:35:00,87.0,63.6,30.26,NE,45,4.0,9.0,46,0.00,,,0.00,Weather View 32 v70,2013-09-06 17:35:00,
2013-09-06 13:40:00,85.0,62.4,30.26,SE,135,7.0,9.0,47,0.00,,,0.00,Weather View 32 v70,2013-09-06 17:40:00,
2013-09-06 13:45:00,85.0,63.6,30.25,ESE,112,2.0,9.0,49,0.00,,,0.00,Weather View 32 v70,2013-09-06 17:45:00,
2013-09-06 13:50:00,86.0,64.5,30.25,East,90,4.0,9.0,49,0.00,,,0.00,Weather View 32 v70,2013-09-06 17:50:00,
2013-09-06 13:55:00,85.0,63.6,30.25,ESE,112,2.0,9.0,49,0.00,,,0.00,Weather View 32 v70,2013-09-06 17:55:00,
2013-09-06 14:00:00,86.0,63.9,30.24,SE,135,5.0,9.0,48,0.00,,,0.00,Weather View 32 v70,2013-09-06 18:00:00,
2013-09-06 14:05:00,86.0,64.5,30.24,West,270,3.0,9.0,49,0.00,,,0.00,Weather View 32 v70,2013-09-06 18:05:00,
2013-09-06 14:15:00,87.0,64.3,30.24,East,90,5.0,9.0,47,0.00,,,0.00,Weather View 32 v70,2013-09-06 18:15:00,
2013-09-06 14:20:00,87.0,64.9,30.24,NE,45,2.0,9.0,48,0.00,,,0.00,Weather View 32 v70,2013-09-06 18:20:00,
2013-09-06 14:25:00,87.0,64.3,30.24,SE,135,1.0,9.0,47,0.00,,,0.00,Weather View 32 v70,2013-09-06 18:25:00,
2013-09-06 14:35:00,87.0,63.6,30.24,SE,135,4.0,9.0,46,0.00,,,0.00,Weather View 32 v70,2013-09-06 18:35:00,
2013-09-06 14:40:00,88.0,65.2,30.24,SE,135,5.0,9.0,47,0.00,,,0.00,Weather View 32 v70,2013-09-06 18:40:00,
2013-09-06 14:45:00,88.0,63.9,30.23,South,180,0.0,9.0,45,0.00,,,0.00,Weather View 32 v70,2013-09-06 18:45:00,
2013-09-06 14:55:00,89.0,64.2,30.23,East,90,3.0,9.0,44,0.00,,,0.00,Weather View 32 v70,2013-09-06 18:55:00,
2013-09-06 15:00:00,90.0,65.1,30.23,East,90,3.0,9.0,44,0.00,,,0.00,Weather View 32 v70,2013-09-06 19:00:00,
2013-09-06 15:05:00,90.0,63.0,30.23,North,360,4.0,9.0,41,0.00,,,0.00,Weather View 32 v70,2013-09-06 19:05:00,
2013-09-06 15:10:00,90.0,63.7,30.23,North,360,0.0,9.0,42,0.00,,,0.00,Weather View 32 v70,2013-09-06 19:10:00,
2013-09-06 15:15:00,89.0,63.5,30.23,WNW,292,1.0,8.0,43,0.00,,,0.00,Weather View 32 v70,2013-09-06 19:15:00,
2013-09-06 15:20:00,88.0,63.9,30.22,NW,315,3.0,7.0,45,0.00,,,0.00,Weather View 32 v70,2013-09-06 19:20:00,
2013-09-06 15:30:00,88.0,63.9,30.22,West,270,5.0,7.0,45,0.00,,,0.00,Weather View 32 v70,2013-09-06 19:30:00,
2013-09-06 15:35:00,87.0,63.0,30.22,WNW,292,0.0,7.0,45,0.00,,,0.00,Weather View 32 v70,2013-09-06 19:35:00,
2013-09-06 15:45:00,87.0,64.3,30.22,NNE,22,1.0,7.0,47,0.00,,,0.00,Weather View 32 v70,2013-09-06 19:45:00,
2013-09-06 15:55:00,87.0,64.3,30.21,NNE,22,2.0,7.0,47,0.00,,,0.00,Weather View 32 v70,2013-09-06 19:55:00,
2013-09-06 16:00:00,87.0,63.6,30.21,North,360,2.0,7.0,46,0.00,,,0.00,Weather View 32 v70,2013-09-06 20:00:00,
2013-09-06 16:05:00,86.0,63.3,30.20,North,360,1.0,7.0,47,0.00,,,0.00,Weather View 32 v70,2013-09-06 20:05:00,
2013-09-06 16:10:00,86.0,64.5,30.20,East,90,4.0,7.0,49,0.00,,,0.00,Weather View 32 v70,2013-09-06 20:10:00,
2013-09-06 16:15:00,86.0,64.5,30.20,NW,315,1.0,7.0,49,0.00,,,0.00,Weather View 32 v70,2013-09-06 20:15:00,
2013-09-06 16:25:00,86.0,64.5,30.19,NW,315,4.0,7.0,49,0.00,,,0.00,Weather View 32 v70,2013-09-06 20:25:00,
2013-09-06 16:30:00,85.0,64.2,30.19,NW,315,1.0,7.0,50,0.00,,,0.00,Weather View 32 v70,2013-09-06 20:30:00,
2013-09-06 16:40:00,85.0,64.8,30.18,NE,45,5.0,7.0,51,0.00,,,0.00,Weather View 32 v70,2013-09-06 20:40:00,
2013-09-06 16:45:00,85.0,64.8,30.18,East,90,3.0,8.0,51,0.00,,,0.00,Weather View 32 v70,2013-09-06 20:45:00,
2013-09-06 16:50:00,84.0,64.4,30.18,East,90,4.0,8.0,52,0.00,,,0.00,Weather View 32 v70,2013-09-06 20:50:00,
2013-09-06 16:55:00,84.0,64.4,30.18,East,90,6.0,8.0,52,0.00,,,0.00,Weather View 32 v70,2013-09-06 20:55:00,
2013-09-06 17:00:00,83.0,64.0,30.18,SE,135,3.0,8.0,53,0.00,,,0.00,Weather View 32 v70,2013-09-06 21:00:00,
2013-09-06 17:05:00,83.0,64.6,30.18,SE,135,3.0,8.0,54,0.00,,,0.00,Weather View 32 v70,2013-09-06 21:05:00,
2013-09-06 17:10:00,83.0,64.0,30.18,ENE,67,5.0,8.0,53,0.00,,,0.00,Weather View 32 v70,2013-09-06 21:10:00,
2013-09-06 17:15:00,83.0,64.0,30.18,NE,45,0.0,8.0,53,0.00,,,0.00,Weather View 32 v70,2013-09-06 21:15:00,
2013-09-06 17:25:00,83.0,64.0,30.17,ENE,67,0.0,8.0,53,0.00,,,0.00,Weather View 32 v70,2013-09-06 21:25:00,
2013-09-06 17:30:00,84.0,65.0,30.17,ENE,67,4.0,8.0,53,0.00,,,0.00,Weather View 32 v70,2013-09-06 21:30:00,
2013-09-06 17:35:00,84.0,65.0,30.17,East,90,0.0,8.0,53,0.00,,,0.00,Weather View 32 v70,2013-09-06 21:35:00,
2013-09-06 17:40:00,84.0,65.5,30.17,NW,315,5.0,8.0,54,0.00,,,0.00,Weather View 32 v70,2013-09-06 21:40:00,
2013-09-06 17:45:00,83.0,64.6,30.16,NW,315,1.0,7.0,54,0.00,,,0.00,Weather View 32 v70,2013-09-06 21:45:00,
2013-09-06 17:50:00,84.0,65.5,30.16,NNE,22,4.0,7.0,54,0.00,,,0.00,Weather View 32 v70,2013-09-06 21:50:00,
2013-09-06 18:00:00,84.0,65.5,30.16,ENE,67,3.0,7.0,54,0.00,,,0.00,Weather View 32 v70,2013-09-06 22:00:00,
2013-09-06 18:10:00,84.0,65.5,30.16,ESE,112,2.0,7.0,54,0.00,,,0.00,Weather View 32 v70,2013-09-06 22:10:00,
2013-09-06 18:20:00,83.0,65.1,30.16,ENE,67,3.0,7.0,55,0.00,,,0.00,Weather View 32 v70,2013-09-06 22:20:00,
2013-09-06 18:25:00,83.0,64.6,30.16,NE,45,3.0,7.0,54,0.00,,,0.00,Weather View 32 v70,2013-09-06 22:25:00,
2013-09-06 18:35:00,84.0,65.5,30.16,NE,45,1.0,7.0,54,0.00,,,0.00,Weather View 32 v70,2013-09-06 22:35:00,
2013-09-06 18:40:00,84.0,66.6,30.16,NNE,22,5.0,7.0,56,0.00,,,0.00,Weather View 32 v70,2013-09-06 22:40:00,
2013-09-06 18:45:00,84.0,66.0,30.16,NNE,22,5.0,7.0,55,0.00,,,0.00,Weather View 32 v70,2013-09-06 22:45:00,
2013-09-06 18:55:00,83.0,65.6,30.16,NE,45,4.0,7.0,56,0.00,,,0.00,Weather View 32 v70,2013-09-06 22:55:00,
2013-09-06 19:05:00,83.0,66.1,30.16,North,360,3.0,7.0,57,0.00,,,0.00,Weather View 32 v70,2013-09-06 23:05:00,
2013-09-06 19:10:00,83.0,66.1,30.16,North,360,5.0,7.0,57,0.00,,,0.00,Weather View 32 v70,2013-09-06 23:10:00,
2013-09-06 19:20:00,83.0,66.6,30.16,NE,45,3.0,7.0,58,0.00,,,0.00,Weather View 32 v70,2013-09-06 23:20:00,
2013-09-06 19:25:00,83.0,66.1,30.16,ENE,67,2.0,7.0,57,0.00,,,0.00,Weather View 32 v70,2013-09-06 23:25:00,
2013-09-06 19:35:00,82.0,66.2,30.16,ENE,67,3.0,7.0,59,0.00,,,0.00,Weather View 32 v70,2013-09-06 23:35:00,
2013-09-06 19:40:00,82.0,67.2,30.15,NE,45,1.0,7.0,61,0.00,,,0.00,Weather View 32 v70,2013-09-06 23:40:00,
2013-09-06 19:50:00,81.0,66.7,30.15,NE,45,2.0,7.0,62,0.00,,,0.00,Weather View 32 v70,2013-09-06 23:50:00,
2013-09-06 20:00:00,80.0,66.7,30.15,NE,45,2.0,7.0,64,0.00,,,0.00,Weather View 32 v70,2013-09-07 00:00:00,
2013-09-06 20:05:00,80.0,67.1,30.14,ENE,67,3.0,7.0,65,0.00,,,0.00,Weather View 32 v70,2013-09-07 00:05:00,
2013-09-06 20:11:00,79.0,66.6,30.14,ENE,67,0.0,7.0,66,0.00,,,0.00,Weather View 32 v70,2013-09-07 00:11:00,
2013-09-06 20:20:00,78.0,66.5,30.14,ENE,67,0.0,7.0,68,0.00,,,0.00,Weather View 32 v70,2013-09-07 00:20:00,
2013-09-06 20:25:00,78.0,67.8,30.14,ENE,67,0.0,6.0,71,0.00,,,0.00,Weather View 32 v70,2013-09-07 00:25:00,
2013-09-06 20:30:00,78.0,67.8,30.14,ENE,67,0.0,6.0,71,0.00,,,0.00,Weather View 32 v70,2013-09-07 00:30:00,
2013-09-06 20:40:00,77.0,68.0,30.14,ENE,67,0.0,6.0,74,0.00,,,0.00,Weather View 32 v70,2013-09-07 00:40:00,
2013-09-06 20:45:00,77.0,68.0,30.14,ENE,67,0.0,3.0,74,0.00,,,0.00,Weather View 32 v70,2013-09-07 00:45:00,
2013-09-06 20:55:00,76.0,68.6,30.14,ENE,67,0.0,3.0,78,0.00,,,0.00,Weather View 32 v70,2013-09-07 00:55:00,
2013-09-06 21:00:00,76.0,69.4,30.14,ENE,67,0.0,3.0,80,0.00,,,0.00,Weather View 32 v70,2013-09-07 01:00:00,
2013-09-06 21:10:00,75.0,68.4,30.14,ENE,67,0.0,3.0,80,0.00,,,0.00,Weather View 32 v70,2013-09-07 01:10:00,
2013-09-06 21:15:00,75.0,69.5,30.14,ENE,67,0.0,3.0,83,0.00,,,0.00,Weather View 32 v70,2013-09-07 01:15:00,
2013-09-06 21:25:00,74.0,69.5,30.13,ENE,67,0.0,0.0,86,0.00,,,0.00,Weather View 32 v70,2013-09-07 01:25:00,
2013-09-06 21:35:00,73.0,69.6,30.13,ENE,67,0.0,0.0,89,0.00,,,0.00,Weather View 32 v70,2013-09-07 01:35:00,
2013-09-06 21:40:00,73.0,69.9,30.13,ENE,67,0.0,0.0,90,0.00,,,0.00,Weather View 32 v70,2013-09-07 01:40:00,
2013-09-06 21:45:00,73.0,70.2,30.13,ENE,67,0.0,0.0,91,0.00,,,0.00,Weather View 32 v70,2013-09-07 01:45:00,
2013-09-06 21:55:00,72.0,69.5,30.13,ENE,67,0.0,0.0,92,0.00,,,0.00,Weather View 32 v70,2013-09-07 01:55:00,
2013-09-06 22:00:00,72.0,70.5,30.13,ENE,67,0.0,0.0,95,0.00,,,0.00,Weather View 32 v70,2013-09-07 02:00:00,
2013-09-06 22:10:00,71.0,69.8,30.13,ENE,67,0.0,0.0,96,0.00,,,0.00,Weather View 32 v70,2013-09-07 02:10:00,
2013-09-06 22:15:00,71.0,70.1,30.13,ENE,67,0.0,0.0,97,0.00,,,0.00,Weather View 32 v70,2013-09-07 02:15:00,
2013-09-06 22:25:00,71.0,70.7,30.13,ENE,67,0.0,0.0,99,0.00,,,0.00,Weather View 32 v70,2013-09-07 02:25:00,
2013-09-06 22:35:00,70.0,70.0,30.13,ENE,67,0.0,0.0,100,0.00,,,0.00,Weather View 32 v70,2013-09-07 02:35:00,
2013-09-06 22:40:00,70.0,70.0,30.13,ENE,67,0.0,0.0,100,0.00,,,0.00,Weather View 32 v70,2013-09-07 02:40:00,
2013-09-06 22:45:00,70.0,70.0,30.13,ENE,67,0.0,0.0,100,0.00,,,0.00,Weather View 32 v70,2013-09-07 02:45:00,
2013-09-06 22:55:00,70.0,69.7,30.13,ENE,67,0.0,0.0,99,0.00,,,0.00,Weather View 32 v70,2013-09-07 02:55:00,
2013-09-06 23:05:00,70.0,69.7,30.12,East,90,1.0,2.0,99,0.00,,,0.00,Weather View 32 v70,2013-09-07 03:05:00,
2013-09-06 23:10:00,70.0,69.7,30.13,East,90,0.0,2.0,99,0.00,,,0.00,Weather View 32 v70,2013-09-07 03:10:00,
2013-09-06 23:20:00,70.0,69.4,30.12,East,90,0.0,2.0,98,0.00,,,0.00,Weather View 32 v70,2013-09-07 03:20:00,
2013-09-06 23:30:00,70.0,69.4,30.12,East,90,0.0,2.0,98,0.00,,,0.00,Weather View 32 v70,2013-09-07 03:30:00,
2013-09-06 23:35:00,70.0,69.4,30.12,East,90,0.0,2.0,98,0.00,,,0.00,Weather View 32 v70,2013-09-07 03:35:00,
2013-09-06 23:40:00,70.0,69.7,30.12,East,90,0.0,2.0,99,0.00,,,0.00,Weather View 32 v70,2013-09-07 03:40:00,
2013-09-06 23:50:00,69.0,69.0,30.12,East,90,0.0,2.0,100,0.00,,,0.00,Weather View 32 v70,2013-09-07 03:50:00,